Zurück zum Katalog

WESTFORD NEEDLES

LostPO
NORAD 3244·DEBRIS·🇺🇸 United States

Gestartet May 9, 1963 von Vandenberg Space Force Base

Loading…

Nächste Überflüge (nächste 24 Stunden)

TLE

VeraltetSource: Space-Track

Epoche: Jan 15, 2020, 05:06 UTC

1  3244U 63014BJ  20015.21275615  .00000003  00000-0  10000-3 0  9991
2  3244  87.3307  58.3320 0035998 318.3653  84.1744  8.65177349 15102

Verfolge WESTFORD NEEDLES in Echtzeit mit AllMySat

Download on the App Store